Regional Weather Roundup
Issued by NWS Sioux Falls, SD

Home | Current Version | Previous Version | Text Only | Print | Product List | Glossary Off
Versions: 1 2 3 4 5 6 7 8 9 10 11 12 13 14 15 16 17 18 19 20 21 22 23 24 25 26 27 28 29 30 31 32 33 34 35 36 37 38 39 40 41 42 43 44 45 46 47 48 49 50

000
ASUS43 KFSD 081210
RWRFSD

WEATHER ROUNDUP FOR SE SOUTH DAKOTA/SW MINNESOTA/NW IOWA
NATIONAL WEATHER SERVICE SIOUX FALLS SD
600 AM CST MON FEB 08 2016

NOTE: "FAIR" INDICATES FEW OR NO CLOUDS BELOW 12,000 FEET WITH NO
SIGNIFICANT WEATHER AND OR OBSTRUCTIONS TO VISIBILITY.


SDZ038>040-050-052>070-081300-
SOUTHEAST SOUTH DAKOTA

CITY           SKY/WX    TMP DP  RH WIND       PRES   REMARKS
BROOKINGS      FLURRIES  17  12  80 N28G35    30.00R WCI  -2
CHAMBERLAIN    CLEAR     25  18  74 NW22G28   30.19R WCI  10
6HR MIN TEMP:  25; 6HR MAX TEMP:  32;

HURON          CLOUDY    25  17  72 N25G32    30.12R WCI   9
6HR MIN TEMP:  25; 6HR MAX TEMP:  28; 6HR PCP: TRACE;

MADISON        FLURRIES  19  18  93 N26G48    30.03R WCI   1
MITCHELL       CLOUDY    27  17  66 N29G41    30.13R WCI  11
6HR MIN TEMP:  27; 6HR MAX TEMP:  29; 6HR PCP: TRACE;

SIOUX FALLS    LGT SNOW  22  15  75 N32G41    30.03R BLWGSNOWWCI   3
6HR MIN TEMP:  21; 6HR MAX TEMP:  24; 6HR PCP: TRACE;

WINNER         FAIR      25  16  68 NW22      30.22R WCI  10
YANKTON        MOCLDY    27  16  63 NW29G37   30.08R WCI  11
$$

MNZ071-072-080-081-089-090-097-098-081300-
SOUTHWEST MINNESOTA

CITY           SKY/WX    TMP DP  RH WIND       PRES   REMARKS
FAIRMONT       CLOUDY    12   5  73 NW29G35   29.88R WCI  -9
JACKSON        LGT SNOW  14  10  85 NW33G48   29.91R VSB 1   WCI  -8
LUVERNE        CLOUDY    19  16  86 N29G35    30.01R WCI   1
MARSHALL       SNOW      15  11  83 N35G44    29.97R VSB 1/2 WCI  -7
6HR MIN TEMP:  14; 6HR MAX TEMP:  18; 6HR PCP: TRACE;

MONTEVIDEO     LGT SNOW  12  10  92 N28G36    30.01R WCI  -9
PIPESTONE      CLEAR     18  10  73 N23G33    29.98R WCI   0
REDWOOD FALLS  LGT SNOW  13   8  81 NW28G40   29.96R WCI  -8
TRACY          LGT SNOW  15  12  87 N29G44    29.97R VSB 3/4 WCI  -5
WINDOM         HVY SNOW  12  10  92 NW36G43   29.91R VSB 1/4 WCI -11
WORTHINGTON    CLOUDY   N/A N/A N/A NW26      29.96R VSB 1
$$

IAZ001>003-012>014-020>022-031-032-NEZ013-014-SDZ071-081300-
NORTHWEST IOWA

CITY           SKY/WX    TMP DP  RH WIND       PRES   REMARKS
CHEROKEE       LGT SNOW  19  15  88 N26       29.98R WCI   0
DENISON        SNOW      21  19  93 NW26G39   29.95R VSB 1/4 WCI   4
ESTHERVILLE    FOG       12  10  92 NW36G47   29.91R VSB<1/4 WCI -11
LE MARS        LGT SNOW  23  23 100 N23G31    30.03R WCI   7
ORANGE CITY      N/A     19  18  93 N24G33    29.99R WCI   2
SHELDON        SNOW      18  16  93 N35G41    29.96R VSB 1/2 WCI  -3
SIOUX CITY     CLOUDY    26  18  71 N24G37    30.02R WCI  11
6HR MIN TEMP:  26; 6HR MAX TEMP:  30; 6HR PCP: TRACE;

SPENCER        LGT SNOW  15  10  80 NW31G41   29.94R VSB 1   WCI  -6
6HR MIN TEMP:  15; 6HR MAX TEMP:  19; 6HR PCP: TRACE;

STORM LAKE     CLOUDY    18  14  86 NW33G45   29.93R WCI  -3
$$

ABBREVIATIONS USED IN REMARKS
   TC - TEMPERATURE IN CELSIUS
  WCI - WIND CHILL INDEX
   HX - HEAT INDEX
  VSB - VISIBILITY




USA.gov is the U.S. government's official web portal to all federal, state and local government web resources and services.